Regional Weather Roundup
Issued by NWS

Home | Current Version | Previous Version | Text Only | Print | Product List | Glossary On
Versions: 1 2 3 4 5 6 7 8 9 10 11 12 13 14 15 16 17 18 19 20 21 22 23 24 25 26 27 28 29 30 31 32 33 34 35 36 37 38 39 40 41 42 43 44 45 46 47 48 49 50
000
ASUS44 KBMX 192310
RWRAL

ALABAMA REGIONAL WEATHER ROUNDUP
NATIONAL WEATHER SERVICE BIRMINGHAM AL
600 PM CDT SUN APR 19 2015

NOTE: "FAIR" INDICATES FEW OR NO CLOUDS BELOW 12,000 FEET
WITH NO SIGNIFICANT WEATHER AND/OR OBSTRUCTIONS TO VISIBILITY.

THE REMARK "TC" DENOTES TEMPERATURE IN DEGREES CELSIUS.

ALZ001>011-014-016>018-020-200000-
NORTH ALABAMA

CITY           SKY/WX    TMP DP  RH WIND       PRES   REMARKS
MUSCLE SHOALS  MOSUNNY   72  60  66 W18G25    29.65R
HUNTSVILLE     MOSUNNY   70  65  84 SW7       29.65R
DECATUR        CLOUDY    70  64  81 W10       29.66R
HALEYVILLE       N/A     71  63  76 SW10G18   29.70R
GADSDEN        PTSUNNY   73  61  64 SW14G23   29.66R
$$

ALZ012-013-022-023-030>036-040>044-200000-
WEST CENTRAL ALABAMA

CITY           SKY/WX    TMP DP  RH WIND       PRES   REMARKS
TUSCALOOSA     SUNNY     78  58  49 SW12      29.70S
$$

ALZ015-024>027-033>036-040>044-200000-
CENTRAL ALABAMA

CITY           SKY/WX    TMP DP  RH WIND       PRES   REMARKS
BIRMINGHAM     MOSUNNY   73  61  65 W14G26    29.72R
MONTGOMERY     MOSUNNY   79  67  66 S7G16     29.72S
SHELBY CO ARPT MOSUNNY   77  59  53 VRB7G18   29.71R
MAXWELL AFB    MOSUNNY   78  69  72 S10       29.72S
GREENVILLE     FAIR      77  66  68 SW7       29.74S
$$

ALZ019-021-028-029-037-038-045>048-200000-
EAST CENTRAL ALABAMA

CITY           SKY/WX    TMP DP  RH WIND       PRES   REMARKS
ANNISTON       TSTM      64  58  80 VRB7G21   29.70R
ALEXANDER CITY MOSUNNY   75  65  70 S7G18     29.73S
AUBURN         PTSUNNY   70  63  78 S9        29.78F
$$

ALZ051>064-200000-
SOUTHWEST ALABAMA

CITY           SKY/WX    TMP DP  RH WIND       PRES   REMARKS
MOBILE         MOSUNNY   79  65  62 SW14      29.78R
BROOKLEY FIELD MOSUNNY   79  67  66 VRB6      29.78S
EVERGREEN      SUNNY     80  64  58 SW7       29.76R
$$

ALZ049-050-065>069-200000-
SOUTHEAST ALABAMA

CITY           SKY/WX    TMP DP  RH WIND       PRES   REMARKS
DOTHAN         SUNNY     75  64  68 SW13G22   29.82F
OZARK          SUNNY     75  63  65 S12       29.79S
TROY           SUNNY     76  68  76 S7        29.77F
EUFAULA        FAIR      75  66  73 SW5       29.76S
$$



USA.gov is the U.S. government's official web portal to all federal, state and local government web resources and services.